EHI
1 2 4 4 3 2 1 1 2 4 5 6 4 1 0 0 0 0 0 0 0 0 0 0 0 0 0 0 0 0 0 0 0 0 0 0 0 0 0 0 0 0 0
2 4 4 3 3 4 4 4 5 7 8 7 4 1 0 0 0 0 0 0 0 0 0 0 0 0 0 0 0 0 0 0 0 0 0 0 0 0 0 0 0 0 0
4 6 5 3 4 6 8 9 10 13 14 10 4 1 0 0 0 0 0 0 0 0 0 0 0 0 0 0 0 0 0 0 0 0 0 0 0 0 0 0 0 0 0
4 5 5 4 4 5 8 9 13 16 16 12 5 1 0 0 0 0 0 0 0 0 0 0 0 0 0 0 0 0 0 0 0 0 0 0 0 0 0 0 0 0 0
2 3 4 5 5 5 6 7 12 16 16 11 6 2 1 1 0 0 0 0 0 0 0 0 0 0 0 0 0 0 0 0 0 0 0 0 0 1 1 0 0 0 0
1 2 6 7 6 5 6 8 11 16 16 12 8 5 3 2 1 0 0 0 0 0 0 0 0 0 0 0 0 0 0 0 0 0 0 0 1 2 2 1 1 1 0
1 3 8 11 8 6 8 10 13 17 19 17 14 11 7 4 3 1 0 0 0 0 0 0 0 0 0 0 0 0 0 0 0 0 0 0 1 2 2 2 2 2 2
1 3 7 9 8 8 9 10 13 17 20 20 18 14 10 7 5 2 0 0 0 0 0 0 0 0 0 0 0 0 0 0 0 0 0 1 2 2 1 1 1 2 3
0 1 3 4 5 6 7 9 12 14 16 16 15 13 10 8 6 4 1 0 0 0 0 0 0 0 0 0 0 0 0 0 0 0 0 4 8 5 0 0 0 1 2
0 0 0 0 1 2 3 7 10 11 10 9 9 8 6 5 5 5 3 2 1 0 0 0 0 0 0 0 0 0 0 1 1 0 1 9 17 11 2 1 0 0 1
1 0 0 0 0 0 1 4 8 8 6 5 4 3 2 2 3 4 5 6 5 1 1 0 0 0 0 0 1 1 1 1 1 1 6 19 25 14 4 2 2 2 2
3 1 0 0 0 0 1 2 3 4 5 5 4 4 4 3 3 3 6 10 8 3 1 0 0 0 0 0 2 3 1 1 1 2 14 32 30 13 4 3 4 4 4
2 1 0 1 1 2 3 4 4 5 7 7 6 6 6 5 4 3 5 8 9 5 3 2 1 1 0 0 1 1 1 1 2 3 18 36 31 12 3 2 3 4 3
1 0 1 4 6 7 8 8 7 8 9 7 6 6 6 5 4 4 6 7 7 6 4 4 4 3 2 1 0 0 0 1 2 5 16 27 24 11 3 1 1 2 2
0 0 3 8 12 15 17 14 10 8 7 4 3 5 5 4 2 3 7 9 7 6 7 6 5 7 7 6 3 1 1 2 3 5 11 18 17 10 4 1 1 2 2
1 2 6 11 17 23 24 19 12 8 7 4 3 5 5 4 4 5 8 9 9 10 14 11 8 10 13 12 7 5 5 6 7 7 7 11 12 9 5 3 3 3 3
4 7 10 12 17 24 27 22 13 9 8 8 8 8 8 6 7 9 10 12 15 18 21 19 14 15 19 19 14 11 11 13 12 8 7 9 11 11 10 9 7 6 6
10 14 13 10 13 21 25 21 14 9 11 13 14 13 11 8 9 13 16 19 25 29 30 28 27 30 32 28 25 22 20 20 16 10 7 10 16 17 18 20 18 14 11
18 17 14 11 13 19 22 20 16 13 15 16 15 15 14 10 11 16 19 23 29 34 36 37 44 50 48 40 33 31 30 26 21 14 9 11 17 19 19 25 27 22 15
22 19 15 15 19 23 23 23 20 18 16 13 11 11 12 11 11 13 16 17 23 29 32 39 49 57 58 51 41 36 33 28 24 20 15 11 11 11 13 22 29 25 20
23 22 20 21 24 26 25 25 23 19 13 10 8 7 8 8 8 8 9 12 18 23 25 31 43 52 57 58 53 44 35 29 25 23 20 15 9 7 10 19 27 29 27
28 25 23 21 21 21 22 22 21 17 12 10 9 7 5 4 4 4 7 11 17 20 21 25 35 44 50 56 59 53 42 34 31 27 23 19 14 12 11 15 21 27 28
32 27 20 17 16 16 17 18 18 17 13 11 10 7 5 3 3 3 5 9 14 16 17 20 27 35 42 48 53 53 48 43 39 34 24 18 18 18 14 11 14 18 20
30 24 18 16 15 15 16 18 19 16 12 9 8 8 7 5 4 4 5 7 9 11 11 13 17 24 30 35 40 44 45 44 42 35 23 16 18 19 15 13 15 16 15
23 21 18 18 18 18 20 23 23 19 13 10 10 10 8 5 3 3 3 4 5 6 5 6 9 13 17 22 28 33 36 38 38 33 24 19 20 20 17 18 20 19 16
18 19 19 20 22 24 26 27 27 24 20 16 14 11 7 4 2 1 1 1 2 3 2 3 4 7 10 15 22 28 32 35 36 32 26 24 25 23 19 20 23 21 18
Wind_Speed
14 17 21 17 15 14 14 14 14 14 14 14 13 12 11 11 10 9 8 7 7 7 7 8 8 8 8 8 9 9 9 9 9 9 9 9 8 8 8 7 6 9 10
16 19 21 17 16 15 14 14 14 14 14 13 13 12 11 10 9 8 8 7 6 6 6 6 7 7 7 7 8 8 8 8 8 8 8 9 8 7 6 4 4 9 9
17 19 19 17 16 15 14 14 14 13 13 12 12 11 10 9 9 8 7 6 6 5 5 5 5 5 6 6 6 7 7 6 6 6 7 7 9 7 6 5 4 8 7
17 17 17 18 16 15 14 14 13 13 12 12 11 10 10 9 8 7 7 6 5 4 4 4 4 4 4 5 5 5 5 5 6 6 7 4 7 9 6 6 6 7 7
16 15 16 18 16 15 14 13 13 12 12 11 10 10 9 8 7 7 6 5 4 4 4 4 4 4 4 4 4 4 5 5 5 10 4 3 3 9 7 6 7 8 8
16 15 17 17 16 15 14 13 12 12 11 10 10 9 8 8 7 6 6 5 4 4 4 4 4 4 4 4 5 5 5 6 8 10 5 6 4 9 7 8 9 10 10
15 14 17 17 16 15 14 13 12 11 11 10 10 9 8 7 7 6 6 6 6 5 5 5 5 5 6 6 6 6 7 7 11 8 6 7 4 8 7 9 10 11 11
14 13 16 16 15 14 14 13 12 12 11 10 10 9 9 8 8 7 7 7 7 7 7 7 7 7 7 8 8 8 9 10 11 11 9 9 5 7 8 10 11 12 12
13 12 13 15 14 14 13 12 12 11 11 10 10 10 9 9 9 9 9 9 9 9 9 9 9 9 9 10 10 10 10 11 13 10 10 8 8 9 10 12 12 13 13
11 11 11 12 12 12 13 13 12 11 11 11 10 10 10 10 11 11 11 12 11 11 11 11 11 11 11 11 11 12 12 12 14 13 9 7 10 9 11 12 13 13 13
10 10 10 11 10 10 10 11 13 12 12 11 11 13 11 11 11 11 13 9 11 12 12 12 12 12 12 13 15 14 13 10 12 9 8 4 9 10 13 14 14 14 13
13 12 10 10 10 9 7 7 8 9 10 10 9 9 9 8 7 8 3 7 11 13 13 14 14 13 13 11 12 15 10 12 11 8 7 8 9 12 14 14 15 15 15
12 12 11 9 8 8 6 6 5 5 5 8 10 9 8 7 7 8 6 8 11 13 12 11 13 11 10 8 7 8 9 9 6 7 6 11 11 13 14 15 15 15 15
11 12 11 10 9 8 7 5 5 5 5 6 7 9 8 6 7 7 6 7 6 6 7 8 7 10 10 10 11 11 11 8 7 6 5 9 11 13 14 14 15 15 15
11 11 10 10 10 9 7 6 6 6 6 7 6 7 8 7 8 7 6 7 8 8 8 8 9 10 10 11 11 11 11 11 10 9 6 9 12 13 15 15 15 15 15
11 11 10 10 10 9 7 7 7 7 6 7 7 8 8 8 8 8 9 8 9 8 8 8 10 9 9 9 11 11 11 11 10 10 10 8 13 15 15 15 15 15 14
9 9 9 9 10 10 9 9 7 7 7 7 7 8 9 10 9 9 9 9 9 8 9 8 10 9 9 10 11 11 10 10 10 10 10 9 9 13 16 16 16 15 15
8 8 8 8 9 9 8 7 7 7 7 7 7 7 9 10 10 9 9 10 9 8 8 8 9 9 9 8 9 9 8 8 11 11 11 10 9 9 11 16 16 15 16
7 7 8 8 7 7 7 6 7 6 6 7 7 7 8 9 10 9 9 9 10 8 9 9 8 8 9 9 9 9 8 9 9 10 11 12 11 11 11 10 15 15 16
7 7 6 7 6 5 5 4 4 5 5 6 6 6 8 8 9 9 9 10 10 9 9 9 10 10 9 9 10 10 9 9 9 10 12 12 11 12 13 13 10 12 17
7 7 6 6 6 5 3 3 3 3 4 4 4 5 6 7 7 8 8 8 8 8 9 11 10 11 10 8 8 9 10 11 12 11 11 11 12 12 12 12 10 9 8
6 7 7 7 6 6 4 3 2 3 4 3 4 4 5 6 7 7 8 8 8 7 10 10 10 9 9 7 7 6 7 8 9 11 10 10 11 10 11 12 12 10 10
4 5 4 5 5 5 4 4 3 3 4 3 3 3 4 6 7 7 8 8 8 9 8 9 9 11 10 9 8 7 7 8 6 6 9 9 9 8 9 10 11 10 10
2 2 3 4 4 4 5 5 5 4 4 4 4 3 5 5 6 6 7 7 8 8 8 10 9 9 10 9 8 9 10 8 6 6 6 8 9 9 10 9 8 8 9
1 1 2 3 4 4 5 5 6 6 4 4 4 4 5 5 5 6 6 7 7 8 9 10 10 10 9 10 9 8 9 9 11 10 9 8 7 8 8 8 7 7 7
3 3 3 4 4 5 6 7 7 7 6 6 6 5 5 4 4 5 6 6 8 8 8 9 9 11 10 11 10 9 9 8 9 10 11 9 8 6 6 5 6 5 5
Wind_Direction
159 149 150 161 159 155 150 147 144 143 142 141 139 138 136 134 132 129 124 119 114 109 103 102 107 109 107 108 111 114 114 113 114 114 112 110 109 110 115 130 168 122 117
152 147 153 162 161 158 153 149 146 145 144 143 142 141 139 138 136 134 130 127 124 119 115 111 110 112 112 114 116 120 124 125 126 125 132 133 124 121 127 139 351 101 132
149 147 156 163 163 160 156 153 150 149 148 147 146 144 144 142 141 139 138 136 133 130 127 125 123 122 121 122 126 131 135 138 140 148 199 171 132 140 143 142 109 124 144
149 151 160 161 165 162 159 157 156 154 153 152 151 151 150 150 149 147 145 145 146 145 145 147 146 144 141 142 144 148 152 157 163 195 216 145 142 140 165 164 161 160 164
150 154 151 162 167 165 163 162 161 160 159 158 158 159 159 159 160 159 159 162 167 170 173 176 177 174 173 174 173 176 180 186 196 234 212 189 160 138 178 188 189 187 184
154 157 149 166 168 169 168 168 168 167 167 167 168 169 171 173 177 179 180 185 194 201 205 207 209 207 205 207 208 210 213 216 228 230 208 222 206 149 193 208 208 205 201
158 155 151 167 170 172 173 175 175 176 176 178 180 182 187 192 198 203 206 210 216 224 229 228 228 229 229 228 229 230 233 235 252 255 234 236 223 149 209 230 230 219 211
158 159 148 165 173 176 179 182 184 185 187 189 192 196 201 207 214 222 227 230 231 234 238 241 241 239 237 237 236 237 239 248 247 250 243 242 185 168 226 242 244 234 222
162 160 156 168 176 181 186 190 192 195 198 201 205 209 213 219 225 231 236 239 242 241 241 244 245 245 243 241 239 239 241 245 263 260 251 244 164 190 231 243 247 243 231
167 169 169 173 177 184 187 193 200 204 208 213 218 222 226 229 230 231 236 230 239 247 248 248 249 248 248 246 243 241 243 245 247 251 246 226 163 204 234 243 246 247 240
177 180 184 177 183 193 197 184 196 207 214 220 221 223 232 239 235 221 228 221 234 246 252 253 252 252 253 243 238 239 240 245 247 250 249 181 172 217 237 243 244 245 243
184 187 194 189 189 198 206 186 210 212 206 219 232 227 228 238 253 260 222 222 243 249 253 250 252 253 248 247 226 219 237 240 252 248 234 172 195 227 239 242 243 242 241
188 190 193 195 201 208 205 210 215 224 219 223 230 237 246 256 247 246 244 218 226 234 241 235 233 240 241 244 256 239 247 256 254 256 238 176 204 228 239 242 240 240 240
192 196 195 193 198 214 225 222 226 230 226 236 226 234 242 244 256 260 258 264 256 243 243 254 249 248 252 256 254 257 258 253 255 258 247 192 212 229 240 243 241 240 238
195 200 200 199 201 204 215 237 237 243 246 244 253 243 251 256 257 262 263 261 265 264 254 247 255 258 257 256 257 256 259 261 262 261 258 214 219 231 238 242 242 241 238
200 201 200 203 204 206 212 224 241 250 244 258 255 254 254 258 263 266 264 260 261 263 267 267 264 261 260 261 261 261 261 264 265 265 265 244 220 226 234 239 241 242 241
200 199 199 205 207 208 219 228 237 247 251 253 257 258 257 259 260 262 267 265 263 265 266 262 266 264 258 257 258 259 257 257 260 260 264 269 255 227 223 231 237 239 241
201 195 197 204 203 210 221 235 248 256 264 265 265 264 261 263 264 266 268 268 268 266 262 258 256 258 257 259 259 256 256 253 252 254 254 253 257 260 235 222 227 233 238
192 190 193 202 205 211 220 232 249 259 265 270 272 274 277 277 275 272 273 275 275 270 266 263 258 256 258 256 257 255 255 254 254 257 257 256 251 251 256 237 219 226 235
176 179 186 189 200 206 213 225 249 259 264 267 275 281 286 284 284 284 277 278 279 274 270 265 265 260 258 259 262 262 258 257 254 253 253 254 252 250 250 256 244 227 223
163 168 178 185 182 193 203 225 243 259 272 280 285 299 297 296 296 289 287 290 284 278 276 274 270 268 263 258 259 260 256 251 248 250 250 255 252 249 251 250 251 253 233
157 168 175 184 186 198 200 227 258 289 286 295 301 305 299 302 302 293 294 291 288 284 276 275 272 269 266 252 248 260 266 258 243 242 240 242 251 249 244 242 242 240 249
150 164 175 185 192 205 211 222 229 238 251 257 281 284 301 304 299 300 298 295 296 286 283 284 279 273 271 266 248 246 253 256 266 245 239 242 243 246 248 245 240 237 234
151 166 185 197 206 210 218 231 245 264 282 300 288 296 298 291 295 298 297 298 295 292 290 282 281 281 273 269 259 244 248 264 265 264 245 239 238 238 246 249 247 235 232
335 249 226 226 230 232 240 239 245 255 268 276 282 282 284 286 282 287 294 297 296 292 294 293 292 283 278 272 269 264 256 252 247 250 257 249 240 237 237 237 240 242 234
348 320 287 264 256 250 247 249 252 263 268 275 276 282 278 281 277 281 290 293 290 293 294 291 288 280 276 276 271 263 257 252 246 245 249 250 247 246 240 239 236 233 227